Ketchikan, AK

10:21 AM AKDT on October 19, 2018 (GMT -0800)
Ketchikan International

Weather History for PAKT - April, 2018

Change the Weather History Date:

Sunday, April 8, 2018

  Actual Average Record
Temperature  
Mean Temperature 43 °F -  
Max Temperature 52 °F 49 °F 63 °F (1959)
Min Temperature 34 °F 34 °F 27 °F (1972)
Degree Days  
Heating Degree Days 22    
Month to date heating degree days 201  
Moisture  
Dew Point 39 °F    
Average Humidity 82    
Maximum Humidity 96    
Minimum Humidity 58    
Precipitation  
Precipitation 0.21 in - - ()
Month to date precipitation 1.85  
Year to date precipitation 28.80  
Sea Level Pressure  
Sea Level Pressure 29.81 in    
Wind  
Wind Speed 7 mph (SE)    
Max Wind Speed 14 mph    
Max Gust Speed 16 mph    
Visibility 9 miles    
Events Rain    
Averages and records for this station are not official NWS values.
T = Trace of Precipitation, MM = Missing Value Source: NWS Daily Summary

Daily Weather History Graph

Daily Weather History Graph

Search for Another Location

Airport or City:

Astronomy

Apr. 08, 2018 Rise Set
Actual Time 5:59 AM AKDT 7:38 PM AKDT
Civil Twilight 5:21 AM AKDT 8:17 PM AKDT
Nautical Twilight 4:34 AM AKDT 9:04 PM AKDT
Astronomical Twilight 3:40 AM AKDT 9:59 PM AKDT
Moon 3:13 AM AKDT (4/8) 11:17 AM AKDT (4/8)
Length of Visible Light 14h 55m
Length of Day
13h 38m
Last Quarter, 45% of the Moon is Illuminated
Apr 8
Last Quarter
Apr 15
New
Apr 22
First Quarter
Apr 29
Full
May 7
Last Quarter

Hourly Weather History & Observations

Time (AKDT) Temp. Windchill Dew Point Humidity Pressure Visibility Wind Dir Wind Speed Gust Speed Precip Events Conditions
12:53 AM 37.0 °F - 33.1 °F 86% 29.50 in 10.0 mi Calm Calm - N/A   Clear
1:53 AM 37.9 °F 35.5 °F 33.1 °F 83% 29.53 in 10.0 mi West 3.5 mph - N/A   Clear
2:53 AM 36.0 °F - 33.1 °F 89% 29.56 in 10.0 mi Calm Calm - N/A   Clear
3:53 AM 35.1 °F - 32.0 °F 89% 29.58 in 10.0 mi Calm Calm - N/A   Partly Cloudy
4:53 AM 37.9 °F 34.4 °F 33.1 °F 83% 29.62 in 10.0 mi SE 4.6 mph - N/A   Mostly Cloudy
5:53 AM 39.9 °F 34.5 °F 36.0 °F 86% 29.64 in 10.0 mi SE 8.1 mph - N/A   Overcast
6:03 AM 39.9 °F 34.5 °F 36.0 °F 86% 29.64 in 10.0 mi SE 8.1 mph - N/A   Scattered Clouds
6:53 AM 39.9 °F 34.5 °F 36.0 °F 86% 29.67 in 10.0 mi SE 8.1 mph - N/A   Clear
7:53 AM 42.8 °F 38.6 °F 37.4 °F 81% 29.70 in 10.0 mi SE 6.9 mph - N/A   Mostly Cloudy
8:53 AM 44.6 °F 40.2 °F 37.4 °F 76% 29.73 in 10.0 mi ESE 8.1 mph - N/A   Mostly Cloudy
9:53 AM 48.2 °F - 37.4 °F 66% 29.76 in 10.0 mi ESE 9.2 mph - N/A   Mostly Cloudy
10:53 AM 50.0 °F - 35.6 °F 58% 29.79 in 10.0 mi SE 12.7 mph - N/A   Overcast
11:53 AM 51.8 °F - 37.4 °F 58% 29.82 in 10.0 mi SE 11.5 mph - N/A   Overcast
12:53 PM 51.8 °F - 37.4 °F 58% 29.85 in 10.0 mi SE 9.2 mph - N/A   Overcast
1:53 PM 51.8 °F - 37.4 °F 58% 29.88 in 10.0 mi SE 10.4 mph - N/A   Overcast
2:53 PM 50.0 °F - 42.8 °F 76% 29.90 in 10.0 mi SE 8.1 mph - N/A Rain Light Rain
3:53 PM 50.0 °F - 41.0 °F 71% 29.91 in 10.0 mi ESE 11.5 mph - N/A   Overcast
4:53 PM 48.2 °F - 42.8 °F 82% 29.93 in 10.0 mi SE 6.9 mph - N/A Rain Light Rain
5:53 PM 48.2 °F - 44.6 °F 87% 29.94 in 10.0 mi SE 6.9 mph - N/A Rain Light Rain
6:53 PM 46.4 °F 42.9 °F 44.6 °F 93% 29.95 in 4.0 mi SE 6.9 mph - N/A Rain Light Rain
7:53 PM 46.4 °F 42.9 °F 44.6 °F 93% 29.96 in 7.0 mi SE 6.9 mph - N/A Rain Light Rain
8:53 PM 46.0 °F 42.5 °F 44.1 °F 93% 29.99 in 8.0 mi SE 6.9 mph - 0.04 in Rain Light Rain
9:53 PM 46.0 °F 44.8 °F 44.1 °F 93% 29.99 in 9.0 mi SE 3.5 mph - 0.05 in Rain Light Rain
10:00 PM 46.0 °F 43.9 °F 44.1 °F 93% 29.99 in 8.0 mi SE 4.6 mph - 0.00 in Rain Light Rain
10:36 PM 46.0 °F 43.9 °F 44.1 °F 93% 29.99 in 8.0 mi SSE 4.6 mph - 0.02 in Rain Light Rain
10:46 PM 46.0 °F 43.1 °F 44.1 °F 93% 29.99 in 6.0 mi ESE 5.8 mph - 0.02 in Rain Light Rain
10:53 PM 46.0 °F 43.1 °F 45.0 °F 96% 30.00 in 6.0 mi ESE 5.8 mph - 0.03 in Rain Light Rain
11:53 PM 46.0 °F 43.1 °F 44.1 °F 93% 30.00 in 10.0 mi SE 5.8 mph - 0.00 in   Overcast